Regional Weather Roundup
Issued by NWS

Home | Current Version | Previous Version | Text Only | Print | Product List | Glossary Off
Versions: 1 2 3 4 5 6 7 8 9 10 11 12 13 14 15 16 17 18 19 20 21 22 23 24 25 26 27 28 29 30 31 32 33 34 35 36 37 38 39 40 41 42 43 44 45 46 47 48 49 50

000
ASUS45 KABQ 260110
RWRNM
NEW MEXICO REGIONAL WEATHER ROUNDUP
NATIONAL WEATHER SERVICE ALBUQUERQUE NM
700 PM MDT MON MAY 25 2015

NOTE: "FAIR" MEANS FEW OR NO CLOUDS BELOW 12,000 FEET AGL WITH NO
       SIGNIFICANT WEATHER OR OBSTRUCTIONS TO VISION.

      THIS PRODUCT IS RELEASED AS TWO VERSIONS.  ONE VERSION NEAR
      THE TOP OF THE HOUR CONTAINING PRELIMINARY DATA FROM ALBUQUERQUE
      AND OTHER STATIONS.  A FINAL VERSION WITH ADDITIONAL DATA IS
      ISSUED ABOUT 10 MINUTES AFTER THE HOUR.

NMZ501-503-504-510>518-260200-
NORTHWEST PLATEAU/NORTHCENTRAL MOUNTAINS

CITY           SKY/WX    TMP DP  RH WIND       PRES   REMARKS
FARMINGTON     SUNNY     59  40  49 S8        30.02R
LOS ALAMOS     CLOUDY    54  35  49 NW10      30.08R
SANTA FE       CLOUDY    57  40  52 W21G26    30.02R
TAOS           CLOUDY    55  36  47 N13       30.03R
ANGEL FIRE     FAIR      49  35  59 NE9       30.08R

$$
NMZ402-403-502-505>509-260200-
WESTCENTRAL MOUNTAINS/SOUTHWEST MOUNTAINS

CITY           SKY/WX    TMP DP  RH WIND       PRES   REMARKS
GALLUP         PTSUNNY   53  43  68 S7        30.10S
GRANTS         CLOUDY    55  36  48 NW14G20   30.09S
SILVER CITY      N/A     73  25  16 W22       30.02R

$$
NMZ407-409-411-412-260200-
SOUTHERN DESERTS

CITY           SKY/WX    TMP DP  RH WIND       PRES   REMARKS
LORDSBURG      FAIR      79  25  13 W17G25    29.95S
DEMING         SUNNY     79  22  12 W15G24    29.94S
LAS CRUCES     SUNNY     78  23  12 W17G26    29.94S
HOLLOMAN AFB   CLOUDY    80  26  13 SW13      29.87R
ALAMOGORDO     MOSUNNY   77  25  14 SW8       29.89S
T OR C         PTSUNNY   70  36  28 N13G25    29.95R

$$
NMZ519>523-260200-
CENTRAL VALLEYS/CENTRAL HIGHLANDS

CITY           SKY/WX    TMP DP  RH WIND       PRES   REMARKS
ALBUQUERQUE    CLOUDY    59  48  67 E8        30.02R
DOUBLE EAGLE   PTSUNNY   61  45  55 NW15      30.03R
MORIARTY ARPT  LGT RAIN  53  40  62 W3        30.06R
CLINES CORNERS LGT RAIN  50  42  74 W24G36    30.06R
BELEN          CLOUDY    59  47  65 NE13      30.01F
SOCORRO        PTSUNNY   66  36  33 W25G33    29.98R

$$
NMZ524>526-539-540-260200-
SOUTHCENTRAL MOUNTAINS

CITY           SKY/WX    TMP DP  RH WIND       PRES   REMARKS
RUIDOSO        PTSUNNY   61  34  36 NW10      30.07R

$$
NMZ527>531-260200-
NORTHEAST HIGHLANDS/NORTHEAST PLAINS

CITY           SKY/WX    TMP DP  RH WIND       PRES   REMARKS
LAS VEGAS      CLOUDY    61  35  37 N13G22    29.99R
RATON          CLOUDY    59  41  51 CALM      29.97R
CLAYTON        CLOUDY    65  44  46 NW7       29.90R

$$
NMZ532>537-260200-
EASTCENTRAL PLAINS

CITY           SKY/WX    TMP DP  RH WIND       PRES   REMARKS
TUCUMCARI      CLOUDY    73  45  36 W6        29.80R
CANNON AFB     CLEAR     74  41  30 W14       29.86R
CLOVIS AIRPORT CLEAR     73  43  33 W15         N/A

$$
NMZ028-029-538-260200-
SOUTHEAST PLAINS

CITY           SKY/WX    TMP DP  RH WIND       PRES   REMARKS
ROSWELL        MOSUNNY   80  33  18 W6        29.83R
ARTESIA        MOSUNNY   82  32  16 W5        29.83R
CARLSBAD       CLEAR     84  31  14 SW15G24   29.81S
HOBBS          CLEAR     77  37  24 CALM      29.86R


$$


USA.gov is the U.S. government's official web portal to all federal, state and local government web resources and services.